User: anonymous   Login
Location: Brno
(49.2000°N, 16.6330°E)
Time: 02:40:26
(UTC+02:00)
Language:

ISS - Orbit

View from above orbital plane
View from above orbital plane
View from above satellite
View from above satellite

Ground track
Ground track

The orbit data is extracted from the following two-line orbital elements,

1 25544U 98067A   17118.26097082  .00016717  00000-0  10270-3 0  9021
2 25544  51.6411 287.1576 0005435 100.1440 260.0326 15.53959205 13987
Epoch (UTC): 28 April 2017 06:15:47
Eccentricity: 0.0005435
inclination: 51.6411°
perigee height: 401 km
apogee height: 409 km
right ascension of ascending node: 287.1576°
argument of perigee: 100.1440°
revolutions per day: 15.53959205
mean anomaly at epoch: 260.0326°
orbit number at epoch: 1398

The dashed part of the orbit path shows where the satellite is in the earth's shadow,  

DLR